Location: Unspecified
(43.4680°N, 87.1740°E)
Time: 11:50:22
(UTC+00:00)

Cosmos 1378 - Pass Details

Date: 17 April 2021
Orbit: 490 x 499 km, 82.5° (Epoch: 14 May)

Event Time Altitude Azimuth Distance (km) Brightness Sun altitude
Exits shadow 21:03:52 46° 117° (ESE) 669 3.8 -23.0°
Maximum altitude 21:04:16 49° 94° (E) 645 3.8 -22.9°
Drops below altitude 10° 21:07:51 10° 19° (NNE) 1,693 6.6 -22.4°
Sets 21:10:00 0° 14° (NNE) 2,579 7.6 -22.1°
